| time (UTC) | temp C | wind direction | speed KPH | gust KPH | rain 1hr cm | rain 24hr cm | rain mn cm | humidity % | barometer mb |
| 20260509135439 | 12 | 192 | 0.0 | 1.6 | 0.00 | 0.00 | 0.00 | 86 | 1006.5 |
| 20260509134936 | 11 | 227 | 8.0 | 11.3 | 0.00 | 0.00 | 0.00 | 85 | 1006.6 |
| 20260509134433 | 11 | 135 | 4.8 | 4.8 | 0.00 | 0.00 | 0.00 | 88 | 1006.9 |
| 20260509133931 | 11 | 152 | 3.2 | 3.2 | 0.00 | 0.00 | 0.00 | 88 | 1006.6 |
| 20260509133427 | 11 | 155 | 3.2 | 3.2 | 0.00 | 0.00 | 0.00 | 87 | 1006.5 |
| 20260509132926 | 11 | 151 | 3.2 | 3.2 | 0.00 | 0.00 | 0.00 | 88 | 1007.2 |
| 20260509132423 | 11 | 238 | 3.2 | 4.8 | 0.00 | 0.00 | 0.00 | 88 | 1007.0 |
| 20260509131920 | 11 | 159 | 4.8 | 8.0 | 0.00 | 0.00 | 0.00 | 88 | 1007.2 |
| 20260509131417 | 10 | 225 | 1.6 | 1.6 | 0.00 | 0.00 | 0.00 | 88 | 1007.1 |
| 20260509130914 | 10 | 148 | 3.2 | 3.2 | 0.00 | 0.00 | 0.00 | 89 | 1007.2 |
| 20260509130409 | 10 | 205 | 6.4 | 9.7 | 0.00 | 0.00 | 0.00 | 88 | 1007.2 |
| 20260509125906 | 10 | 220 | 1.6 | 1.6 | 0.00 | 0.00 | 0.00 | 89 | 1007.3 |
| 20260509125403 | 10 | 162 | 1.6 | 1.6 | 0.00 | 0.00 | 0.00 | 90 | 1007.2 |
| 20260509124859 | 10 | 227 | 0.0 | 1.6 | 0.00 | 0.00 | 0.00 | 91 | 1007.3 |
| 20260509124356 | 10 | 185 | 1.6 | 1.6 | 0.00 | 0.00 | 0.00 | 90 | 1007.2 |
| 20260509123854 | 10 | 195 | 1.6 | 1.6 | 0.00 | 0.00 | 0.00 | 90 | 1007.3 |
| 20260509123351 | 10 | 202 | 1.6 | 3.2 | 0.00 | 0.00 | 0.00 | 90 | 1007.4 |
| 20260509122847 | 10 | 242 | 1.6 | 3.2 | 0.00 | 0.00 | 0.00 | 90 | 1007.3 |
| 20260509122344 | 10 | 223 | 4.8 | 8.0 | 0.00 | 0.00 | 0.00 | 90 | 1007.3 |
| 20260509121840 | 9 | 212 | 1.6 | 1.6 | 0.00 | 0.00 | 0.00 | 91 | 1007.6 |
| 20260509121338 | 9 | 240 | 0.0 | 1.6 | 0.00 | 0.00 | 0.00 | 91 | 1007.3 |
| 20260509120836 | 9 | 227 | 1.6 | 1.6 | 0.00 | 0.00 | 0.00 | 91 | 1007.3 |
| 20260509120333 | 9 | 179 | 1.6 | 1.6 | 0.00 | 0.00 | 0.00 | 91 | 1007.2 |
| 20260509115831 | 9 | 206 | 1.6 | 3.2 | 0.00 | 0.00 | 0.00 | 91 | 1007.3 |
| 20260509115328 | 9 | 219 | 1.6 | 1.6 | 0.00 | 0.00 | 0.00 | 91 | 1007.2 |
| 20260509114826 | 8 | 227 | 1.6 | 3.2 | 0.00 | 0.00 | 0.00 | 91 | 1007.0 |
| 20260509114324 | 8 | 246 | 4.8 | 8.0 | 0.00 | 0.00 | 0.00 | 92 | 1007.3 |
| 20260509113823 | 8 | 243 | 1.6 | 3.2 | 0.00 | 0.00 | 0.00 | 92 | 1007.2 |
| 20260509113320 | 8 | 222 | 1.6 | 3.2 | 0.00 | 0.00 | 0.00 | 92 | 1007.3 |
| 20260509112817 | 8 | 216 | 1.6 | 3.2 | 0.00 | 0.00 | 0.00 | 92 | 1007.3 |
| 20260509112314 | 7 | 218 | 1.6 | 3.2 | 0.00 | 0.00 | 0.00 | 92 | 1007.2 |
| 20260509111811 | 7 | 212 | 3.2 | 4.8 | 0.00 | 0.00 | 0.00 | 91 | 1007.2 |
| 20260509111308 | 7 | 231 | 1.6 | 1.6 | 0.00 | 0.00 | 0.00 | 91 | 1007.3 |
| 20260509110805 | 7 | 224 | 4.8 | 8.0 | 0.00 | 0.00 | 0.00 | 91 | 1007.4 |
| 20260509110301 | 7 | 235 | 6.4 | 11.3 | 0.00 | 0.00 | 0.00 | 91 | 1007.3 |
| 20260509105800 | 7 | 212 | 1.6 | 3.2 | 0.00 | 0.00 | 0.00 | 90 | 1007.3 |
| 20260509105257 | 7 | 253 | 0.0 | 1.6 | 0.00 | 0.00 | 0.00 | 90 | 1007.5 |
| 20260509104754 | 7 | 225 | 3.2 | 3.2 | 0.00 | 0.00 | 0.00 | 89 | 1007.4 |
| 20260509104250 | 7 | 240 | 3.2 | 3.2 | 0.00 | 0.00 | 0.00 | 89 | 1007.4 |
| 20260509103749 | 7 | 241 | 0.0 | 1.6 | 0.00 | 0.00 | 0.00 | 89 | 1007.4 |
| 20260509103246 | 7 | 216 | 1.6 | 3.2 | 0.00 | 0.00 | 0.00 | 89 | 1007.4 |
| 20260509102744 | 7 | 234 | 1.6 | 3.2 | 0.00 | 0.00 | 0.00 | 89 | 1007.7 |
| 20260509102241 | 7 | 234 | 0.0 | 0.0 | 0.00 | 0.00 | 0.00 | 88 | 1007.3 |
| 20260509101737 | 7 | 217 | 1.6 | 1.6 | 0.00 | 0.00 | 0.00 | 87 | 1007.6 |
| 20260509101233 | 7 | 222 | 1.6 | 1.6 | 0.00 | 0.00 | 0.00 | 87 | 1007.4 |
| 20260509100731 | 7 | 227 | 1.6 | 3.2 | 0.00 | 0.00 | 0.00 | 86 | 1007.5 |
| 20260509100228 | 7 | 216 | 1.6 | 3.2 | 0.00 | 0.00 | 0.00 | 86 | 1007.1 |
| 20260509095724 | 7 | 208 | 3.2 | 3.2 | 0.00 | 0.00 | 0.00 | 86 | 1007.2 |
| 20260509095222 | 7 | 227 | 1.6 | 1.6 | 0.00 | 0.00 | 0.00 | 86 | 1007.4 |
| 20260509094719 | 7 | 204 | 6.4 | 8.0 | 0.00 | 0.00 | 0.00 | 85 | 1007.3 |
| 20260509094215 | 7 | 222 | 4.8 | 4.8 | 0.00 | 0.00 | 0.00 | 85 | 1007.3 |
| 20260509093714 | 7 | 220 | 4.8 | 4.8 | 0.00 | 0.00 | 0.00 | 85 | 1007.3 |
| 20260509093211 | 7 | 214 | 4.8 | 8.0 | 0.00 | 0.00 | 0.00 | 84 | 1007.3 |
| 20260509092709 | 7 | 215 | 4.8 | 8.0 | 0.00 | 0.00 | 0.00 | 84 | 1007.3 |
| 20260509092207 | 7 | 221 | 6.4 | 8.0 | 0.00 | 0.00 | 0.00 | 83 | 1007.2 |
| 20260509091705 | 7 | 226 | 4.8 | 4.8 | 0.00 | 0.00 | 0.00 | 82 | 1007.2 |
| 20260509091200 | 7 | 212 | 4.8 | 4.8 | 0.00 | 0.00 | 0.00 | 82 | 1007.2 |
| 20260509090658 | 7 | 216 | 4.8 | 8.0 | 0.00 | 0.00 | 0.00 | 82 | 1007.5 |
| 20260509090155 | 7 | 224 | 4.8 | 8.0 | 0.00 | 0.00 | 0.00 | 81 | 1007.5 |
| 20260509085653 | 7 | 215 | 4.8 | 8.0 | 0.00 | 0.00 | 0.00 | 81 | 1007.5 |
| 20260509085149 | 7 | 216 | 1.6 | 3.2 | 0.00 | 0.00 | 0.00 | 80 | 1007.3 |
| 20260509084646 | 7 | 214 | 3.2 | 4.8 | 0.00 | 0.00 | 0.00 | 79 | 1007.5 |
| 20260509084137 | 7 | 226 | 4.8 | 4.8 | 0.00 | 0.00 | 0.00 | 77 | 1007.5 |
| 20260509083635 | 7 | 186 | 3.2 | 8.0 | 0.00 | 0.00 | 0.00 | 76 | 1007.8 |
| 20260509083131 | 6 | 210 | 6.4 | 8.0 | 0.00 | 0.00 | 0.00 | 74 | 1007.6 |
| 20260509082628 | 6 | 237 | 4.8 | 4.8 | 0.00 | 0.00 | 0.00 | 72 | 1007.6 |
| 20260509082125 | 7 | 220 | 4.8 | 4.8 | 0.00 | 0.00 | 0.00 | 72 | 1007.8 |
| 20260509081622 | 7 | 214 | 4.8 | 8.0 | 0.00 | 0.00 | 0.00 | 73 | 1007.6 |
| 20260509081119 | 7 | 230 | 4.8 | 8.0 | 0.00 | 0.00 | 0.00 | 73 | 1007.8 |
| 20260509080618 | 7 | 236 | 3.2 | 3.2 | 0.00 | 0.00 | 0.00 | 70 | 1008.0 |
| 20260509080115 | 7 | 212 | 6.4 | 8.0 | 0.00 | 0.00 | 0.00 | 70 | 1007.9 |
| 20260509075613 | 7 | 213 | 4.8 | 8.0 | 0.00 | 0.00 | 0.00 | 69 | 1007.8 |
| 20260509075110 | 7 | 206 | 4.8 | 4.8 | 0.00 | 0.00 | 0.00 | 68 | 1008.0 |
| 20260509074607 | 7 | 208 | 4.8 | 4.8 | 0.00 | 0.00 | 0.00 | 68 | 1007.9 |
| 20260509074103 | 7 | 213 | 4.8 | 8.0 | 0.00 | 0.00 | 0.00 | 66 | 1008.0 |
| 20260509073600 | 7 | 208 | 4.8 | 4.8 | 0.00 | 0.00 | 0.00 | 66 | 1008.0 |
| 20260509073056 | 7 | 205 | 3.2 | 4.8 | 0.00 | 0.00 | 0.00 | 66 | 1008.2 |
| 20260509072552 | 6 | 220 | 3.2 | 3.2 | 0.00 | 0.00 | 0.00 | 67 | 1008.0 |
| 20260509072044 | 6 | 220 | 1.6 | 3.2 | 0.00 | 0.00 | 0.00 | 68 | 1008.2 |
| 20260509071541 | 6 | 215 | 1.6 | 3.2 | 0.00 | 0.00 | 0.00 | 67 | 1008.0 |
| 20260509071039 | 6 | 247 | 0.0 | 1.6 | 0.00 | 0.00 | 0.00 | 65 | 1008.3 |
| 20260509070536 | 6 | 212 | 1.6 | 3.2 | 0.00 | 0.00 | 0.00 | 65 | 1008.3 |
| 20260509070032 | 6 | 218 | 1.6 | 1.6 | 0.00 | 0.00 | 0.00 | 66 | 1008.1 |
| 20260509065527 | 6 | 233 | 1.6 | 1.6 | 0.00 | 0.00 | 0.00 | 65 | 1008.3 |
| 20260509065024 | 6 | 248 | 0.0 | 0.0 | 0.00 | 0.00 | 0.00 | 66 | 1008.3 |
| 20260509064521 | 6 | 248 | 0.0 | 0.0 | 0.00 | 0.00 | 0.00 | 65 | 1008.5 |
| 20260509064019 | 7 | 231 | 3.2 | 3.2 | 0.00 | 0.00 | 0.00 | 63 | 1008.7 |
| 20260509063514 | 7 | 222 | 3.2 | 3.2 | 0.00 | 0.00 | 0.00 | 64 | 1008.6 |
| 20260509063012 | 7 | 213 | 3.2 | 3.2 | 0.00 | 0.00 | 0.00 | 63 | 1008.8 |
| 20260509062509 | 7 | 216 | 4.8 | 4.8 | 0.00 | 0.00 | 0.00 | 65 | 1008.7 |
| 20260509062007 | 7 | 217 | 4.8 | 4.8 | 0.00 | 0.00 | 0.00 | 63 | 1008.7 |
| 20260509061504 | 7 | 226 | 3.2 | 3.2 | 0.00 | 0.00 | 0.00 | 63 | 1008.8 |
| 20260509061001 | 7 | 219 | 4.8 | 4.8 | 0.00 | 0.00 | 0.00 | 63 | 1009.2 |
| 20260509060458 | 6 | 220 | 6.4 | 8.0 | 0.00 | 0.00 | 0.00 | 63 | 1009.2 |
| 20260509055953 | 6 | 226 | 4.8 | 4.8 | 0.00 | 0.00 | 0.00 | 64 | 1009.2 |
| 20260509055449 | 6 | 219 | 4.8 | 4.8 | 0.00 | 0.00 | 0.00 | 64 | 1009.2 |
| 20260509054946 | 6 | 220 | 4.8 | 4.8 | 0.00 | 0.00 | 0.00 | 64 | 1009.2 |
| 20260509054442 | 6 | 230 | 4.8 | 4.8 | 0.00 | 0.00 | 0.00 | 65 | 1009.4 |
| 20260509053940 | 6 | 220 | 4.8 | 4.8 | 0.00 | 0.00 | 0.00 | 65 | 1009.2 |
| 20260509053438 | 6 | 225 | 4.8 | 4.8 | 0.00 | 0.00 | 0.00 | 66 | 1009.4 |
| 20260509052935 | 6 | 215 | 8.0 | 9.7 | 0.00 | 0.00 | 0.00 | 65 | 1009.6 |
| 20260509052433 | 6 | 231 | 4.8 | 4.8 | 0.00 | 0.00 | 0.00 | 65 | 1009.6 |
| 20260509051931 | 6 | 220 | 6.4 | 8.0 | 0.00 | 0.00 | 0.00 | 64 | 1009.6 |
| 20260509051428 | 6 | 215 | 4.8 | 4.8 | 0.00 | 0.00 | 0.00 | 64 | 1009.6 |
| 20260509050925 | 6 | 226 | 4.8 | 4.8 | 0.00 | 0.00 | 0.00 | 66 | 1009.7 |
| 20260509050421 | 6 | 228 | 3.2 | 3.2 | 0.00 | 0.00 | 0.00 | 66 | 1009.9 |
| 20260509045918 | 6 | 224 | 3.2 | 3.2 | 0.00 | 0.00 | 0.00 | 65 | 1009.7 |
| 20260509045415 | 6 | 210 | 4.8 | 4.8 | 0.00 | 0.00 | 0.00 | 66 | 1009.4 |
| 20260509044912 | 6 | 212 | 4.8 | 4.8 | 0.00 | 0.00 | 0.00 | 65 | 1009.8 |
| 20260509044410 | 6 | 212 | 4.8 | 4.8 | 0.00 | 0.00 | 0.00 | 62 | 1010.0 |
| 20260509043907 | 6 | 211 | 4.8 | 4.8 | 0.00 | 0.00 | 0.00 | 63 | 1010.0 |
| 20260509043402 | 6 | 201 | 6.4 | 8.0 | 0.00 | 0.00 | 0.00 | 59 | 1010.1 |
| 20260509042858 | 7 | 224 | 3.2 | 3.2 | 0.00 | 0.00 | 0.00 | 57 | 1010.1 |
| 20260509042355 | 6 | 229 | 3.2 | 3.2 | 0.00 | 0.00 | 0.00 | 58 | 1010.0 |
| 20260509041851 | 7 | 235 | 3.2 | 3.2 | 0.00 | 0.00 | 0.00 | 57 | 1009.9 |
| 20260509041343 | 7 | 227 | 3.2 | 3.2 | 0.00 | 0.00 | 0.00 | 59 | 1009.9 |
| 20260509040841 | 6 | 233 | 3.2 | 3.2 | 0.00 | 0.00 | 0.00 | 58 | 1010.3 |
| 20260509040339 | 7 | 226 | 3.2 | 3.2 | 0.00 | 0.00 | 0.00 | 59 | 1010.1 |
| 20260509035835 | 7 | 224 | 4.8 | 4.8 | 0.00 | 0.28 | 0.28 | 56 | 1010.3 |
| 20260509035333 | 6 | 236 | 3.2 | 3.2 | 0.00 | 0.28 | 0.28 | 60 | 1010.1 |
| 20260509034828 | 7 | 230 | 4.8 | 4.8 | 0.00 | 0.28 | 0.28 | 58 | 1010.2 |
| 20260509034327 | 7 | 218 | 4.8 | 4.8 | 0.00 | 0.28 | 0.28 | 57 | 1010.3 |
| 20260509033823 | 7 | 224 | 6.4 | 8.0 | 0.00 | 0.28 | 0.28 | 54 | 1010.4 |
| 20260509033321 | 7 | 228 | 8.0 | 9.7 | 0.00 | 0.28 | 0.28 | 53 | 1010.5 |
| 20260509032817 | 6 | 224 | 4.8 | 4.8 | 0.00 | 0.28 | 0.28 | 56 | 1010.4 |
| 20260509032314 | 6 | 228 | 4.8 | 4.8 | 0.00 | 0.28 | 0.28 | 55 | 1010.3 |
| 20260509031812 | 6 | 222 | 3.2 | 3.2 | 0.00 | 0.28 | 0.28 | 58 | 1010.4 |
| 20260509031309 | 6 | 260 | 0.0 | 0.0 | 0.00 | 0.28 | 0.28 | 64 | 1010.3 |
| 20260509030807 | 6 | 260 | 0.0 | 0.0 | 0.00 | 0.28 | 0.28 | 62 | 1010.1 |
| 20260509030305 | 6 | 237 | 0.0 | 1.6 | 0.00 | 0.28 | 0.28 | 59 | 1010.2 |
| 20260509025801 | 6 | 234 | 1.6 | 1.6 | 0.00 | 0.28 | 0.28 | 63 | 1010.4 |
| 20260509025256 | 6 | 233 | 1.6 | 1.6 | 0.00 | 0.28 | 0.28 | 62 | 1010.5 |
| 20260509024752 | 6 | 235 | 1.6 | 1.6 | 0.00 | 0.28 | 0.28 | 63 | 1010.4 |
| 20260509024248 | 6 | 236 | 3.2 | 3.2 | 0.00 | 0.28 | 0.28 | 60 | 1010.5 |
| 20260509023746 | 6 | 239 | 1.6 | 1.6 | 0.00 | 0.28 | 0.28 | 63 | 1010.4 |
| 20260509023243 | 6 | 256 | 0.0 | 0.0 | 0.00 | 0.28 | 0.28 | 64 | 1010.5 |
| 20260509022739 | 6 | 248 | 0.0 | 0.0 | 0.00 | 0.28 | 0.28 | 62 | 1010.4 |
| 20260509022237 | 6 | 247 | 0.0 | 0.0 | 0.00 | 0.28 | 0.28 | 65 | 1010.4 |
| 20260509021733 | 5 | 242 | 0.0 | 0.0 | 0.00 | 0.28 | 0.28 | 65 | 1010.2 |
| 20260509021231 | 5 | 247 | 0.0 | 0.0 | 0.00 | 0.28 | 0.28 | 66 | 1010.3 |
| 20260509020729 | 5 | 246 | 0.0 | 0.0 | 0.00 | 0.28 | 0.28 | 67 | 1010.3 |
| 20260509020226 | 5 | 247 | 0.0 | 0.0 | 0.00 | 0.28 | 0.28 | 75 | 1010.4 |
| 20260509015724 | 5 | 250 | 0.0 | 0.0 | 0.00 | 0.28 | 0.28 | 70 | 1010.4 |
| 20260509015222 | 5 | 257 | 0.0 | 0.0 | 0.00 | 0.28 | 0.28 | 70 | 1010.2 |
| 20260509014718 | 5 | 248 | 0.0 | 0.0 | 0.00 | 0.28 | 0.28 | 68 | 1010.5 |
| 20260509014215 | 5 | 241 | 0.0 | 1.6 | 0.00 | 0.28 | 0.28 | 74 | 1010.3 |
| 20260509013712 | 5 | 254 | 0.0 | 0.0 | 0.00 | 0.28 | 0.28 | 74 | 1010.3 |
| 20260509013207 | 5 | 255 | 1.6 | 1.6 | 0.00 | 0.28 | 0.28 | 73 | 1010.3 |
| 20260509012704 | 5 | 260 | 1.6 | 1.6 | 0.00 | 0.28 | 0.28 | 72 | 1010.2 |
| 20260509012201 | 5 | 264 | 1.6 | 1.6 | 0.00 | 0.28 | 0.28 | 72 | 1010.3 |
| 20260509011658 | 6 | 258 | 0.0 | 1.6 | 0.00 | 0.28 | 0.28 | 73 | 1010.3 |
| 20260509011155 | 6 | 265 | 1.6 | 1.6 | 0.00 | 0.28 | 0.28 | 67 | 1010.1 |
| 20260509010653 | 6 | 268 | 1.6 | 1.6 | 0.00 | 0.28 | 0.28 | 68 | 1009.9 |
| 20260509010149 | 6 | 261 | 1.6 | 1.6 | 0.00 | 0.28 | 0.28 | 67 | 1010.3 |
| 20260509005647 | 6 | 264 | 1.6 | 1.6 | 0.00 | 0.28 | 0.28 | 65 | 1009.9 |
| 20260509005144 | 6 | 258 | 1.6 | 1.6 | 0.00 | 0.28 | 0.28 | 73 | 1010.2 |
| 20260509004639 | 6 | 270 | 0.0 | 1.6 | 0.00 | 0.28 | 0.28 | 70 | 1009.7 |
| 20260509004136 | 6 | 262 | 1.6 | 1.6 | 0.00 | 0.28 | 0.28 | 74 | 1009.6 |
| 20260509003635 | 7 | 260 | 1.6 | 1.6 | 0.00 | 0.28 | 0.28 | 67 | 1009.7 |
| 20260509003132 | 7 | 266 | 0.0 | 1.6 | 0.00 | 0.28 | 0.28 | 66 | 1009.7 |
| 20260509002629 | 7 | 253 | 0.0 | 1.6 | 0.00 | 0.28 | 0.28 | 64 | 1009.8 |
| 20260509002126 | 7 | 252 | 0.0 | 1.6 | 0.00 | 0.28 | 0.28 | 65 | 1009.6 |
| 20260509001624 | 7 | 253 | 1.6 | 1.6 | 0.00 | 0.28 | 0.28 | 69 | 1009.7 |
| 20260509001119 | 8 | 254 | 0.0 | 1.6 | 0.00 | 0.28 | 0.28 | 62 | 1009.6 |
| 20260509000618 | 9 | 261 | 0.0 | 0.0 | 0.00 | 0.28 | 0.28 | 48 | 1009.7 |
| 20260509000114 | 10 | 238 | 1.6 | 1.6 | 0.00 | 0.28 | 0.28 | 49 | 1009.7 |
| 20260508235612 | 10 | 258 | 0.0 | 1.6 | 0.00 | 0.28 | 0.28 | 45 | 1009.4 |
| 20260508235108 | 10 | 248 | 1.6 | 1.6 | 0.00 | 0.28 | 0.28 | 44 | 1009.8 |
| 20260508234606 | 10 | 282 | 3.2 | 3.2 | 0.00 | 0.28 | 0.28 | 45 | 1009.8 |
| 20260508234102 | 11 | 249 | 1.6 | 3.2 | 0.00 | 0.28 | 0.28 | 43 | 1009.6 |
| 20260508233601 | 11 | 235 | 3.2 | 3.2 | 0.00 | 0.28 | 0.28 | 41 | 1009.7 |
| 20260508233059 | 11 | 261 | 4.8 | 4.8 | 0.00 | 0.28 | 0.28 | 41 | 1009.6 |
| 20260508232555 | 11 | 231 | 1.6 | 3.2 | 0.00 | 0.28 | 0.28 | 45 | 1009.8 |
| 20260508232052 | 12 | 276 | 4.8 | 9.7 | 0.00 | 0.28 | 0.28 | 37 | 1009.6 |
| 20260508231550 | 12 | 274 | 3.2 | 3.2 | 0.00 | 0.28 | 0.28 | 39 | 1009.4 |
| 20260508231047 | 12 | 240 | 4.8 | 4.8 | 0.00 | 0.28 | 0.28 | 40 | 1009.3 |
| 20260508230543 | 12 | 253 | 4.8 | 4.8 | 0.00 | 0.28 | 0.28 | 38 | 1009.4 |
| 20260508230040 | 12 | 250 | 1.6 | 3.2 | 0.00 | 0.28 | 0.28 | 39 | 1009.4 |
| 20260508225537 | 12 | 265 | 8.0 | 11.3 | 0.00 | 0.28 | 0.28 | 35 | 1009.4 |
| 20260508225034 | 12 | 234 | 3.2 | 4.8 | 0.00 | 0.28 | 0.28 | 38 | 1009.4 |
| 20260508224532 | 12 | 270 | 4.8 | 4.8 | 0.00 | 0.28 | 0.28 | 35 | 1009.4 |
| 20260508224029 | 12 | 244 | 6.4 | 8.0 | 0.00 | 0.28 | 0.28 | 33 | 1009.3 |
| 20260508223527 | 12 | 254 | 6.4 | 8.0 | 0.00 | 0.28 | 0.28 | 34 | 1009.7 |
| 20260508223024 | 12 | 281 | 3.2 | 3.2 | 0.00 | 0.28 | 0.28 | 36 | 1009.3 |
| 20260508222521 | 12 | 244 | 8.0 | 9.7 | 0.00 | 0.28 | 0.28 | 34 | 1009.7 |
| 20260508222018 | 12 | 281 | 4.8 | 8.0 | 0.00 | 0.28 | 0.28 | 35 | 1009.3 |
| 20260508221514 | 12 | 231 | 3.2 | 3.2 | 0.00 | 0.28 | 0.28 | 32 | 1009.1 |
| 20260508221010 | 12 | 255 | 6.4 | 8.0 | 0.00 | 0.28 | 0.28 | 36 | 1009.4 |
| 20260508220507 | 13 | 245 | 4.8 | 8.0 | 0.00 | 0.28 | 0.28 | 37 | 1009.4 |
| 20260508220003 | 12 | 260 | 6.4 | 8.0 | 0.00 | 0.28 | 0.28 | 33 | 1009.3 |
| 20260508215500 | 12 | 234 | 6.4 | 8.0 | 0.00 | 0.28 | 0.28 | 35 | 1009.3 |
| 20260508214956 | 12 | 336 | 6.4 | 9.7 | 0.00 | 0.28 | 0.28 | 32 | 1009.2 |
| 20260508214454 | 12 | 302 | 3.2 | 3.2 | 0.00 | 0.28 | 0.28 | 36 | 1009.2 |
| 20260508213950 | 12 | 276 | 4.8 | 4.8 | 0.00 | 0.28 | 0.28 | 35 | 1009.4 |
| 20260508213448 | 12 | 325 | 8.0 | 9.7 | 0.00 | 0.28 | 0.28 | 36 | 1009.3 |
| 20260508212943 | 12 | 270 | 3.2 | 3.2 | 0.00 | 0.28 | 0.28 | 37 | 1009.1 |
| 20260508212440 | 12 | 244 | 6.4 | 9.7 | 0.00 | 0.28 | 0.28 | 36 | 1009.4 |
| 20260508211936 | 12 | 229 | 8.0 | 9.7 | 0.00 | 0.28 | 0.28 | 36 | 1009.4 |
| 20260508211431 | 12 | 285 | 4.8 | 4.8 | 0.00 | 0.28 | 0.28 | 36 | 1009.4 |
| 20260508210929 | 12 | 261 | 4.8 | 4.8 | 0.00 | 0.28 | 0.28 | 37 | 1009.6 |
| 20260508210426 | 12 | 212 | 6.4 | 9.7 | 0.00 | 0.28 | 0.28 | 37 | 1009.4 |
| 20260508205922 | 12 | 356 | 3.2 | 4.8 | 0.00 | 0.28 | 0.28 | 34 | 1009.6 |
| 20260508205419 | 12 | 278 | 1.6 | 1.6 | 0.00 | 0.28 | 0.28 | 33 | 1009.4 |
| 20260508204915 | 12 | 274 | 3.2 | 3.2 | 0.00 | 0.28 | 0.28 | 35 | 1009.4 |
| 20260508204413 | 12 | 300 | 6.4 | 9.7 | 0.00 | 0.28 | 0.28 | 37 | 1009.4 |
| 20260508203908 | 12 | 266 | 6.4 | 8.0 | 0.00 | 0.28 | 0.28 | 37 | 1009.4 |
| 20260508203405 | 13 | 304 | 6.4 | 9.7 | 0.00 | 0.28 | 0.28 | 34 | 1009.6 |
| 20260508202900 | 13 | 260 | 4.8 | 4.8 | 0.00 | 0.28 | 0.28 | 43 | 1009.7 |
| 20260508202358 | 13 | 242 | 3.2 | 3.2 | 0.00 | 0.28 | 0.28 | 40 | 1009.7 |
| 20260508201855 | 12 | 274 | 3.2 | 3.2 | 0.00 | 0.28 | 0.28 | 42 | 1009.9 |
| 20260508201351 | 12 | 254 | 4.8 | 4.8 | 0.00 | 0.28 | 0.28 | 47 | 1009.8 |
| 20260508200848 | 12 | 262 | 4.8 | 8.0 | 0.00 | 0.28 | 0.28 | 42 | 1009.9 |
| 20260508200345 | 12 | 244 | 1.6 | 1.6 | 0.00 | 0.28 | 0.28 | 45 | 1009.9 |
| 20260508195840 | 12 | 207 | 1.6 | 3.2 | 0.00 | 0.28 | 0.28 | 46 | 1010.2 |
| 20260508195337 | 11 | 8 | 8.0 | 9.7 | 0.00 | 0.28 | 0.28 | 44 | 1010.3 |
| 20260508194834 | 11 | 249 | 4.8 | 4.8 | 0.00 | 0.28 | 0.28 | 48 | 1010.2 |
| 20260508194331 | 12 | 286 | 9.7 | 11.3 | 0.00 | 0.28 | 0.28 | 46 | 1010.1 |
| 20260508193828 | 12 | 331 | 1.6 | 1.6 | 0.00 | 0.28 | 0.28 | 46 | 1010.3 |
| 20260508193324 | 12 | 279 | 3.2 | 3.2 | 0.00 | 0.28 | 0.28 | 48 | 1010.4 |
| 20260508192820 | 11 | 283 | 1.6 | 3.2 | 0.00 | 0.28 | 0.28 | 46 | 1010.6 |
| 20260508192317 | 11 | 282 | 4.8 | 8.0 | 0.00 | 0.28 | 0.28 | 48 | 1010.4 |
| 20260508191814 | 11 | 275 | 4.8 | 4.8 | 0.00 | 0.28 | 0.28 | 53 | 1010.6 |
| 20260508191312 | 11 | 238 | 3.2 | 4.8 | 0.00 | 0.28 | 0.28 | 51 | 1010.6 |
| 20260508190804 | 11 | 276 | 4.8 | 4.8 | 0.00 | 0.28 | 0.28 | 51 | 1010.5 |
| 20260508190259 | 11 | 234 | 6.4 | 8.0 | 0.00 | 0.28 | 0.28 | 53 | 1010.6 |
| 20260508185756 | 11 | 278 | 4.8 | 8.0 | 0.00 | 0.28 | 0.28 | 53 | 1011.0 |
| 20260508185254 | 11 | 249 | 4.8 | 4.8 | 0.00 | 0.28 | 0.28 | 53 | 1010.8 |
| 20260508184750 | 11 | 245 | 4.8 | 4.8 | 0.00 | 0.28 | 0.28 | 56 | 1010.7 |
| 20260508184248 | 11 | 305 | 8.0 | 11.3 | 0.00 | 0.28 | 0.28 | 56 | 1010.9 |
| 20260508183745 | 11 | 268 | 9.7 | 11.3 | 0.00 | 0.28 | 0.28 | 54 | 1010.9 |
| 20260508183241 | 11 | 256 | 3.2 | 4.8 | 0.00 | 0.28 | 0.28 | 56 | 1010.9 |
| 20260508182737 | 10 | 237 | 0.0 | 0.0 | 0.00 | 0.28 | 0.28 | 53 | 1010.9 |
| 20260508182234 | 10 | 219 | 4.8 | 4.8 | 0.00 | 0.28 | 0.28 | 58 | 1010.9 |
| 20260508181730 | 10 | 211 | 1.6 | 3.2 | 0.00 | 0.28 | 0.28 | 54 | 1010.8 |
| 20260508181227 | 10 | 305 | 8.0 | 8.0 | 0.00 | 0.28 | 0.28 | 52 | 1010.7 |
| 20260508180723 | 10 | 12 | 3.2 | 3.2 | 0.00 | 0.28 | 0.28 | 56 | 1011.1 |
| 20260508180220 | 10 | 353 | 8.0 | 9.7 | 0.00 | 0.28 | 0.28 | 55 | 1011.0 |
| 20260508175717 | 10 | 271 | 4.8 | 4.8 | 0.00 | 0.28 | 0.28 | 53 | 1011.0 |
| 20260508175214 | 10 | 292 | 1.6 | 1.6 | 0.00 | 0.28 | 0.28 | 53 | 1010.8 |
| 20260508174712 | 10 | 327 | 6.4 | 9.7 | 0.00 | 0.28 | 0.28 | 62 | 1011.0 |
| 20260508174208 | 10 | 254 | 3.2 | 3.2 | 0.00 | 0.28 | 0.28 | 56 | 1011.1 |
| 20260508173705 | 9 | 282 | 3.2 | 3.2 | 0.00 | 0.28 | 0.28 | 58 | 1011.2 |
| 20260508173201 | 10 | 249 | 1.6 | 1.6 | 0.00 | 0.28 | 0.28 | 56 | 1011.3 |
| 20260508172658 | 10 | 244 | 9.7 | 11.3 | 0.00 | 0.28 | 0.28 | 62 | 1011.2 |
| 20260508172155 | 9 | 324 | 3.2 | 4.8 | 0.00 | 0.28 | 0.28 | 55 | 1011.2 |
| 20260508171651 | 8 | 205 | 9.7 | 12.9 | 0.00 | 0.28 | 0.28 | 61 | 1011.1 |
| 20260508171147 | 8 | 281 | 4.8 | 8.0 | 0.00 | 0.28 | 0.28 | 63 | 1011.3 |
| 20260508170645 | 8 | 352 | 6.4 | 9.7 | 0.00 | 0.28 | 0.28 | 65 | 1011.2 |
| 20260508170142 | 8 | 243 | 6.4 | 8.0 | 0.00 | 0.28 | 0.28 | 66 | 1011.6 |
| 20260508165639 | 8 | 300 | 6.4 | 8.0 | 0.00 | 0.28 | 0.28 | 67 | 1011.4 |
| 20260508165136 | 8 | 236 | 6.4 | 8.0 | 0.00 | 0.28 | 0.28 | 65 | 1011.6 |
| 20260508164633 | 8 | 235 | 11.3 | 11.3 | 0.00 | 0.28 | 0.28 | 64 | 1011.6 |
| 20260508164129 | 8 | 206 | 4.8 | 9.7 | 0.00 | 0.28 | 0.28 | 69 | 1011.7 |
| 20260508163627 | 7 | 251 | 8.0 | 11.3 | 0.00 | 0.28 | 0.28 | 69 | 1011.6 |
| 20260508163124 | 8 | 251 | 4.8 | 4.8 | 0.00 | 0.28 | 0.28 | 68 | 1011.7 |
| 20260508162620 | 8 | 306 | 6.4 | 9.7 | 0.00 | 0.28 | 0.28 | 67 | 1011.5 |
| 20260508162118 | 8 | 291 | 8.0 | 9.7 | 0.00 | 0.28 | 0.28 | 72 | 1011.7 |
| 20260508161614 | 7 | 263 | 8.0 | 9.7 | 0.00 | 0.28 | 0.28 | 78 | 1011.4 |
| 20260508161112 | 7 | 358 | 4.8 | 8.0 | 0.00 | 0.28 | 0.28 | 78 | 1011.7 |
| 20260508160610 | 7 | 351 | 3.2 | 3.2 | 0.00 | 0.28 | 0.28 | 78 | 1011.8 |
| 20260508160107 | 7 | 242 | 6.4 | 9.7 | 0.00 | 0.28 | 0.28 | 77 | 1012.1 |
| 20260508155604 | 7 | 281 | 11.3 | 14.5 | 0.00 | 0.28 | 0.28 | 74 | 1011.9 |
| 20260508155101 | 6 | 250 | 3.2 | 4.8 | 0.00 | 0.28 | 0.28 | 82 | 1012.0 |
| 20260508154558 | 7 | 281 | 4.8 | 8.0 | 0.00 | 0.28 | 0.28 | 82 | 1011.9 |
| 20260508154055 | 6 | 230 | 6.4 | 9.7 | 0.00 | 0.28 | 0.28 | 82 | 1011.9 |
| 20260508153552 | 6 | 256 | 8.0 | 9.7 | 0.00 | 0.28 | 0.28 | 82 | 1012.0 |
| 20260508153048 | 6 | 261 | 6.4 | 8.0 | 0.00 | 0.28 | 0.28 | 83 | 1011.7 |
| 20260508152546 | 6 | 234 | 1.6 | 3.2 | 0.00 | 0.28 | 0.28 | 82 | 1012.0 |
| 20260508152040 | 6 | 229 | 4.8 | 4.8 | 0.00 | 0.28 | 0.28 | 83 | 1011.7 |
| 20260508151537 | 5 | 226 | 8.0 | 9.7 | 0.00 | 0.28 | 0.28 | 86 | 1011.7 |
| 20260508151034 | 5 | 291 | 1.6 | 3.2 | 0.00 | 0.28 | 0.28 | 86 | 1012.0 |
| 20260508150532 | 5 | 235 | 1.6 | 1.6 | 0.00 | 0.28 | 0.28 | 84 | 1012.1 |
| 20260508150027 | 5 | 245 | 4.8 | 4.8 | 0.00 | 0.28 | 0.28 | 84 | 1011.9 |
| 20260508145524 | 5 | 244 | 6.4 | 8.0 | 0.00 | 0.28 | 0.28 | 85 | 1011.8 |
| 20260508145020 | 5 | 251 | 4.8 | 4.8 | 0.00 | 0.28 | 0.28 | 84 | 1012.0 |
| 20260508144518 | 5 | 263 | 4.8 | 4.8 | 0.00 | 0.28 | 0.28 | 86 | 1011.7 |
| 20260508144015 | 5 | 253 | 6.4 | 8.0 | 0.00 | 0.28 | 0.28 | 88 | 1011.9 |
| 20260508143513 | 4 | 259 | 3.2 | 3.2 | 0.00 | 0.28 | 0.28 | 90 | 1011.8 |
| 20260508143009 | 4 | 258 | 3.2 | 4.8 | 0.00 | 0.28 | 0.28 | 90 | 1011.9 |
| 20260508142506 | 5 | 283 | 1.6 | 3.2 | 0.00 | 0.28 | 0.28 | 93 | 1011.9 |
| 20260508142003 | 3 | 256 | 1.6 | 1.6 | 0.00 | 0.28 | 0.28 | 94 | 1012.0 |
| 20260508141459 | 3 | 335 | 3.2 | 3.2 | 0.00 | 0.28 | 0.28 | 95 | 1012.0 |
| 20260508140957 | 3 | 285 | 0.0 | 1.6 | 0.00 | 0.28 | 0.28 | 96 | 1011.7 |
| 20260508140454 | 3 | 256 | 0.0 | 0.0 | 0.00 | 0.28 | 0.28 | 95 | 1011.9 |
| 20260508135949 | 3 | 216 | 3.2 | 3.2 | 0.00 | 0.28 | 0.28 | 96 | 1011.9 |